START_TIME,STEP,MOV.,M29,t_acc.,H22,t_acc.,H26,t_acc.,H30,t_acc.
1979-03-09 00:00:29.920 ,2,1,0.,24.0,0.,24.0,0.,24.0,0.,24.0
1979-03-09 00:00:53.920 ,3,1,0.,24.0,0.,24.0,0.,24.0,0.,24.0
1979-03-09 00:01:17.920 ,4,1,0.,24.0,0.,24.0,0.,24.0,0.,24.0
1979-03-09 00:01:41.920 ,5,1,0.,24.0,0.,24.0,0.,24.0,0.,24.0
1979-03-09 00:02:05.920 ,6,1,0.,24.0,0.,24.0,0.,24.0,0.,24.0
1979-03-09 00:02:29.920 ,7,1,0.,24.0,0.,24.0,0.,24.0,0.,24.0
1979-03-09 00:02:53.920 ,7,1,0.,24.0,0.,24.0,0.,24.0,0.,24.0
1979-03-09 00:03:17.920 ,6,1,0.,24.0,0.,24.0,0.,24.0,0.,24.0
1979-03-09 00:03:41.920 ,5,1,0.,24.0,0.,24.0,0.,24.0,0.,24.0
1979-03-09 00:04:05.920 ,4,1,0.,24.0,0.,24.0,0.,24.0,0.,24.0
1979-03-09 00:04:29.920 ,3,1,0.,24.0,0.,24.0,0.,24.0,0.,24.0
1979-03-09 00:04:53.920 ,2,1,0.,24.0,0.,24.0,0.,24.0,0.,24.0
1979-03-09 00:05:17.920 ,1,1,0.,24.0,0.,24.0,0.,24.0,0.,24.0
1979-03-09 00:05:41.920 ,0,1,0.,24.0,0.,24.0,0.,24.0,0.,24.0
1979-03-09 00:06:05.920 ,0,1,0.,24.0,0.,24.0,0.,24.0,0.,24.0
1979-03-09 00:06:29.920 ,1,1,0.,24.0,0.,24.0,0.,24.0,0.,24.0
1979-03-09 00:06:53.920 ,2,1,0.,24.0,0.,24.0,0.,24.0,0.,24.0
1979-03-09 00:07:17.920 ,3,1,0.,24.0,0.,24.0,0.,24.0,0.,24.0
1979-03-09 00:07:41.920 ,4,1,0.,24.0,0.,24.0,0.,24.0,0.,24.0
1979-03-09 00:08:05.920 ,5,1,0.,24.0,0.,24.0,0.,24.0,0.,24.0
1979-03-09 00:08:29.920 ,6,1,0.,24.0,0.,24.0,0.,24.0,0.,24.0
1979-03-09 00:08:53.920 ,7,1,0.,24.0,0.,24.0,0.,24.0,0.,24.0
1979-03-09 00:09:17.920 ,7,1,0.,24.0,0.,24.0,0.,24.0,0.,24.0
1979-03-09 00:09:41.920 ,6,1,0.,24.0,0.,24.0,0.,24.0,0.,24.0
1979-03-09 00:10:05.920 ,5,1,0.,24.0,0.,24.0,0.,24.0,0.,24.0
1979-03-09 00:10:29.920 ,4,1,0.,24.0,0.,24.0,0.,24.0,0.,24.0
1979-03-09 00:10:53.920 ,3,1,0.,24.0,0.,24.0,0.,24.0,0.,24.0
1979-03-09 00:11:17.920 ,2,1,0.,24.0,0.,24.0,0.,24.0,0.,24.0
1979-03-09 00:11:41.920 ,1,1,0.,24.0,0.,24.0,0.,24.0,0.,24.0
1979-03-09 00:12:05.920 ,0,1,0.,24.0,0.,24.0,0.,24.0,0.,24.0
1979-03-09 00:12:29.920 ,0,1,0.,24.0,0.,24.0,0.,24.0,0.,24.0
1979-03-09 00:12:53.920 ,1,1,0.,24.0,0.,24.0,0.,24.0,0.,24.0
1979-03-09 00:13:17.920 ,2,1,0.,24.0,0.,24.0,0.,24.0,0.,24.0
1979-03-09 00:13:41.920 ,3,1,0.,24.0,0.,24.0,0.,24.0,0.,24.0
1979-03-09 00:14:05.920 ,4,1,0.,24.0,0.,24.0,0.,24.0,0.,24.0
1979-03-09 00:14:29.920 ,5,1,0.,24.0,0.,24.0,0.,24.0,0.,24.0
1979-03-09 00:14:53.920 ,6,1,0.,24.0,0.,24.0,0.,24.0,0.,24.0
1979-03-09 00:15:17.920 ,7,1,0.,24.0,0.,24.0,0.,24.0,0.,24.0
1979-03-09 00:15:41.920 ,7,1,0.,24.0,0.,24.0,0.,24.0,0.,24.0
1979-03-09 00:16:05.920 ,6,1,0.,24.0,0.,24.0,0.,24.0,0.,24.0
1979-03-09 00:16:29.920 ,5,1,0.,24.0,0.,24.0,0.,24.0,0.,24.0
1979-03-09 00:16:53.920 ,4,1,0.,24.0,0.,24.0,0.,24.0,0.,24.0
1979-03-09 00:17:17.920 ,3,1,0.,24.0,0.,24.0,0.,24.0,0.,24.0
1979-03-09 00:17:41.920 ,2,1,0.,24.0,0.,24.0,0.,24.0,0.,24.0
1979-03-09 00:18:05.920 ,1,1,0.,24.0,0.,24.0,0.,24.0,0.,24.0
1979-03-09 00:18:29.920 ,0,1,0.,24.0,0.,24.0,0.,24.0,0.,24.0
1979-03-09 00:18:53.920 ,0,1,0.,24.0,0.,24.0,0.,24.0,0.,24.0
1979-03-09 00:19:17.920 ,1,1,0.,24.0,0.,24.0,0.,24.0,0.,24.0
1979-03-09 00:19:41.920 ,2,1,0.,24.0,0.,24.0,0.,24.0,0.,24.0
1979-03-09 00:20:05.920 ,3,1,0.,24.0,0.,24.0,0.,24.0,0.,24.0
1979-03-09 00:20:29.920 ,4,1,0.,24.0,0.,24.0,0.,24.0,0.,24.0
1979-03-09 00:20:53.920 ,5,1,0.,24.0,0.,24.0,0.,24.0,0.,24.0
1979-03-09 00:21:17.920 ,6,1,0.,24.0,0.,24.0,0.,24.0,0.,24.0
1979-03-09 00:21:41.920 ,7,1,0.,24.0,0.,24.0,0.,24.0,0.,24.0
1979-03-09 00:22:05.920 ,7,1,0.,24.0,0.,24.0,0.,24.0,0.,24.0
1979-03-09 00:22:29.920 ,6,1,0.,24.0,0.,24.0,0.,24.0,0.,24.0
1979-03-09 00:22:53.920 ,5,1,0.,24.0,0.,24.0,0.,24.0,0.,24.0
1979-03-09 00:23:17.920 ,4,1,0.,24.0,0.,24.0,0.,24.0,0.,24.0
1979-03-09 00:23:41.920 ,3,1,0.,24.0,0.,24.0,0.,24.0,0.,24.0
1979-03-09 00:24:05.920 ,2,1,0.,24.0,0.,24.0,0.,24.0,0.,24.0
1979-03-09 00:24:29.920 ,1,1,0.,24.0,0.,24.0,0.,24.0,0.,24.0
1979-03-09 00:24:53.920 ,0,1,0.,24.0,0.,24.0,0.,24.0,0.,24.0
1979-03-09 00:25:17.920 ,0,1,0.,24.0,0.,24.0,0.,24.0,0.,24.0
1979-03-09 00:25:41.920 ,1,1,0.,24.0,0.,24.0,0.,24.0,0.,24.0
1979-03-09 00:26:05.920 ,2,1,0.,24.0,0.,24.0,0.,24.0,0.,24.0
1979-03-09 00:26:29.920 ,3,1,0.,24.0,0.,24.0,0.,24.0,0.,24.0
1979-03-09 00:26:53.920 ,4,1,0.,24.0,0.,24.0,0.,24.0,0.,24.0
1979-03-09 00:27:17.920 ,5,1,0.,24.0,0.,24.0,0.,24.0,0.,24.0
1979-03-09 00:27:41.920 ,6,1,0.,24.0,0.,24.0,0.,24.0,0.,24.0
1979-03-09 00:28:05.920 ,7,1,0.,24.0,0.,24.0,0.,24.0,0.,24.0
1979-03-09 00:28:29.920 ,7,1,0.,24.0,0.,24.0,0.,24.0,0.,24.0
1979-03-09 00:28:53.920 ,6,1,0.,24.0,0.,24.0,0.,24.0,0.,24.0
1979-03-09 00:29:17.920 ,5,1,0.,24.0,0.,24.0,0.,24.0,0.,24.0
1979-03-09 00:29:41.920 ,4,1,0.,24.0,0.,24.0,0.,24.0,0.,24.0
1979-03-09 00:30:05.920 ,3,1,0.,24.0,0.,24.0,0.,24.0,0.,24.0
1979-03-09 00:30:29.920 ,2,1,0.,24.0,0.,24.0,0.,24.0,0.,24.0
1979-03-09 00:30:53.920 ,1,1,0.,24.0,0.,24.0,0.,24.0,0.,24.0
1979-03-09 00:31:17.920 ,0,1,0.,24.0,0.,24.0,0.,24.0,0.,24.0
1979-03-09 00:31:41.920 ,0,1,0.,24.0,0.,24.0,0.,24.0,0.,24.0
1979-03-09 00:32:05.920 ,1,1,0.,24.0,0.,24.0,0.,24.0,0.,24.0
1979-03-09 00:32:29.920 ,2,1,0.,24.0,0.,24.0,0.,24.0,0.,24.0
1979-03-09 00:32:53.920 ,3,1,0.,24.0,0.,24.0,0.,24.0,0.,24.0
1979-03-09 00:33:17.920 ,4,1,0.,24.0,0.,24.0,0.,24.0,0.,24.0
1979-03-09 00:33:41.920 ,5,1,0.,24.0,0.,24.0,0.,24.0,0.,24.0
1979-03-09 00:34:05.920 ,6,1,0.,24.0,0.,24.0,0.,24.0,0.,24.0
1979-03-09 00:34:29.920 ,7,1,0.,24.0,0.,24.0,0.,24.0,0.,24.0
1979-03-09 00:34:53.920 ,7,1,0.,24.0,0.,24.0,0.,24.0,0.,24.0
1979-03-09 00:35:17.920 ,6,1,0.,24.0,0.,24.0,0.,24.0,0.,24.0
1979-03-09 00:35:41.920 ,5,1,0.,24.0,0.,24.0,0.,24.0,0.,24.0
1979-03-09 00:36:05.920 ,4,1,0.,24.0,0.,24.0,0.,24.0,0.,24.0
1979-03-09 00:36:29.920 ,3,1,0.,24.0,0.,24.0,0.,24.0,0.,24.0
1979-03-09 00:36:53.920 ,2,1,0.,24.0,0.,24.0,0.,24.0,0.,24.0
1979-03-09 00:37:17.920 ,1,1,0.,24.0,0.,24.0,0.,24.0,0.,24.0
1979-03-09 00:37:41.920 ,0,1,0.,24.0,0.,24.0,0.,24.0,0.,24.0
1979-03-09 00:38:05.920 ,0,1,0.,24.0,0.,24.0,0.,24.0,0.,24.0
1979-03-09 00:38:29.920 ,1,1,0.,24.0,0.,24.0,0.,24.0,0.,24.0
1979-03-09 00:38:53.920 ,2,1,0.,24.0,0.,24.0,0.,24.0,0.,24.0
1979-03-09 00:39:17.920 ,3,1,0.,24.0,0.,24.0,0.,24.0,0.,24.0
1979-03-09 00:39:41.920 ,4,1,0.,24.0,0.,24.0,0.,24.0,0.,24.0
1979-03-09 00:40:05.920 ,5,1,0.,24.0,0.,24.0,0.,24.0,0.,24.0
1979-03-09 00:40:29.920 ,6,1,0.,24.0,0.,24.0,0.,24.0,0.,24.0
1979-03-09 00:40:53.920 ,7,1,0.,24.0,0.,24.0,0.,24.0,0.,24.0
1979-03-09 00:41:17.920 ,7,1,0.,24.0,0.,24.0,0.,24.0,0.,24.0
1979-03-09 00:41:41.920 ,6,1,0.,24.0,0.,24.0,0.,24.0,0.,24.0
1979-03-09 00:42:05.920 ,5,1,0.,24.0,0.,24.0,0.,24.0,0.,24.0
1979-03-09 00:42:29.920 ,4,1,0.,24.0,0.,24.0,0.,24.0,0.,24.0
1979-03-09 00:42:53.920 ,3,1,0.,24.0,0.,24.0,0.,24.0,0.,24.0
1979-03-09 00:43:17.920 ,2,1,0.,24.0,0.,24.0,0.,24.0,0.,24.0
1979-03-09 00:43:41.920 ,1,1,0.,24.0,0.,24.0,0.,24.0,0.,24.0
1979-03-09 00:44:05.920 ,0,1,0.,24.0,0.,24.0,0.,24.0,0.,24.0
1979-03-09 00:44:29.920 ,0,1,0.,24.0,0.,24.0,0.,24.0,0.,24.0
1979-03-09 00:44:53.920 ,1,1,0.,24.0,0.,24.0,0.,24.0,0.,24.0
1979-03-09 00:45:17.920 ,2,1,0.,24.0,0.,24.0,0.,24.0,0.,24.0
1979-03-09 00:45:41.920 ,3,1,0.,24.0,0.,24.0,0.,24.0,0.,24.0
1979-03-09 00:46:05.920 ,4,1,0.,24.0,0.,24.0,0.,24.0,0.,24.0
1979-03-09 00:46:29.920 ,5,1,0.,24.0,0.,24.0,0.,24.0,0.,24.0
1979-03-09 00:46:53.920 ,6,1,0.,24.0,0.,24.0,0.,24.0,0.,24.0
1979-03-09 00:47:17.920 ,7,1,0.,24.0,0.,24.0,0.,24.0,0.,24.0
1979-03-09 00:47:41.920 ,7,1,0.,24.0,0.,24.0,0.,24.0,0.,24.0
1979-03-09 00:48:05.920 ,6,1,0.,24.0,0.,24.0,0.,24.0,0.,24.0
1979-03-09 00:48:29.920 ,5,1,0.,24.0,0.,24.0,0.,24.0,0.,24.0
1979-03-09 00:48:53.920 ,4,1,0.,24.0,0.,24.0,0.,24.0,0.,24.0
1979-03-09 00:49:17.920 ,3,1,0.,24.0,0.,24.0,0.,24.0,0.,24.0
1979-03-09 00:49:41.920 ,2,1,0.,24.0,0.,24.0,0.,24.0,0.,24.0
1979-03-09 00:50:05.920 ,1,1,0.,24.0,0.,24.0,0.,24.0,0.,24.0
1979-03-09 00:50:29.920 ,0,1,0.,24.0,0.,24.0,0.,24.0,0.,24.0
1979-03-09 00:50:53.920 ,0,1,0.,24.0,0.,24.0,0.,24.0,0.,24.0
1979-03-09 00:51:17.920 ,1,1,0.,24.0,0.,24.0,0.,24.0,0.,24.0
1979-03-09 00:51:41.920 ,2,1,0.,24.0,0.,24.0,0.,24.0,0.,24.0
1979-03-09 00:52:05.920 ,3,1,0.,24.0,0.,24.0,0.,24.0,0.,24.0
1979-03-09 00:52:29.920 ,4,1,0.,24.0,0.,24.0,0.,24.0,0.,24.0
1979-03-09 00:52:53.920 ,5,1,0.,24.0,0.,24.0,0.,24.0,0.,24.0
1979-03-09 00:53:17.920 ,6,1,0.,24.0,0.,24.0,0.,24.0,0.,24.0
1979-03-09 00:53:41.920 ,7,1,0.,24.0,0.,24.0,0.,24.0,0.,24.0
1979-03-09 00:54:05.920 ,7,1,0.,24.0,0.,24.0,0.,24.0,0.,24.0
1979-03-09 00:54:29.920 ,6,1,0.,24.0,0.,24.0,0.,24.0,0.,24.0
1979-03-09 00:54:53.920 ,0,0,0.,24.0,0.,24.0,0.,24.0,0.,24.0
1979-03-09 00:55:22.720 ,0,0,0.,24.0,0.,24.0,0.,24.0,0.,24.0
1979-03-09 00:55:41.920 ,3,1,0.,24.0,0.,24.0,0.,24.0,0.,24.0
1979-03-09 00:56:05.920 ,2,1,0.,24.0,0.,24.0,0.,24.0,0.,24.0
1979-03-09 00:56:29.920 ,1,1,0.,24.0,0.,24.0,0.,24.0,0.,24.0
1979-03-09 00:56:53.920 ,0,1,0.,24.0,0.,24.0,0.,24.0,0.,24.0
1979-03-09 00:57:17.920 ,0,1,0.,24.0,0.,24.0,0.,24.0,0.,24.0
1979-03-09 00:57:41.920 ,1,1,0.,24.0,0.,24.0,0.,24.0,0.,24.0
1979-03-09 00:58:05.920 ,2,1,0.,24.0,0.,24.0,0.,24.0,0.,24.0
1979-03-09 00:58:29.920 ,3,1,0.,24.0,0.,24.0,0.,24.0,0.,24.0
1979-03-09 00:58:53.920 ,4,1,0.,24.0,0.,24.0,0.,24.0,0.,24.0
1979-03-09 00:59:17.920 ,5,1,0.,24.0,0.,24.0,0.,24.0,0.,24.0
1979-03-09 00:59:41.920 ,6,1,0.,24.0,0.,24.0,0.,24.0,0.,24.0
1979-03-09 01:00:05.920 ,7,1,0.,24.0,0.,24.0,0.,24.0,0.,24.0
1979-03-09 01:00:29.930 ,7,1,0.,24.0,0.,24.0,0.,24.0,0.,24.0
1979-03-09 01:00:53.930 ,6,1,0.,24.0,0.,24.0,0.,24.0,0.,24.0
1979-03-09 01:01:17.930 ,5,1,0.,24.0,0.,24.0,0.,24.0,0.,24.0
1979-03-09 01:01:41.930 ,4,1,0.,24.0,0.,24.0,0.,24.0,0.,24.0
1979-03-09 01:02:05.930 ,3,1,0.,24.0,0.,24.0,0.,24.0,0.,24.0
1979-03-09 01:02:29.930 ,2,1,0.,24.0,0.,24.0,0.,24.0,0.,24.0
1979-03-09 01:02:53.930 ,1,1,0.,24.0,0.,24.0,0.,24.0,0.,24.0
1979-03-09 01:03:17.930 ,0,1,0.,24.0,0.,24.0,0.,24.0,0.,24.0
1979-03-09 01:03:41.930 ,0,1,0.,24.0,0.,24.0,0.,24.0,0.,24.0
1979-03-09 01:04:05.920 ,1,1,0.,24.0,0.,24.0,0.,24.0,0.,24.0
1979-03-09 01:04:29.920 ,2,1,0.,24.0,0.,24.0,0.,24.0,0.,24.0
1979-03-09 01:04:53.920 ,3,1,0.,24.0,0.,24.0,0.,24.0,0.,24.0
1979-03-09 01:05:17.920 ,4,1,0.,24.0,0.,24.0,0.,24.0,0.,24.0
1979-03-09 01:05:41.920 ,5,1,0.,24.0,0.,24.0,0.,24.0,0.,24.0
1979-03-09 01:06:05.920 ,6,1,0.,24.0,0.,24.0,0.,24.0,0.,24.0
1979-03-09 01:06:29.920 ,7,1,0.,24.0,0.,24.0,0.,24.0,0.,24.0
1979-03-09 01:06:53.920 ,7,1,0.,24.0,0.,24.0,0.,24.0,0.,24.0
1979-03-09 01:07:17.930 ,6,1,0.,24.0,0.,24.0,0.,24.0,0.,24.0
1979-03-09 01:07:41.930 ,5,1,0.,24.0,0.,24.0,0.,24.0,0.,24.0
1979-03-09 01:08:05.930 ,4,1,0.,24.0,0.,24.0,0.,24.0,0.,24.0
1979-03-09 01:08:29.930 ,3,1,0.,24.0,0.,24.0,0.,24.0,0.,24.0
1979-03-09 01:08:53.930 ,2,1,0.,24.0,0.,24.0,0.,24.0,0.,24.0
1979-03-09 01:09:17.930 ,1,1,0.,24.0,0.,24.0,0.,24.0,0.,24.0
1979-03-09 01:09:41.930 ,0,1,0.,24.0,0.,24.0,0.,24.0,0.,24.0
1979-03-09 01:10:05.930 ,0,1,0.,24.0,0.,24.0,0.,24.0,0.,24.0
1979-03-09 01:10:29.930 ,1,1,0.,24.0,0.,24.0,0.,24.0,0.,24.0
1979-03-09 01:10:53.930 ,2,1,0.,24.0,0.,24.0,0.,24.0,0.,24.0
1979-03-09 01:11:17.930 ,3,1,0.,24.0,0.,24.0,0.,24.0,0.,24.0
1979-03-09 01:11:41.930 ,4,1,0.,24.0,0.,24.0,0.,24.0,0.,24.0
1979-03-09 01:12:05.930 ,5,1,0.,24.0,0.,24.0,0.,24.0,0.,24.0
1979-03-09 01:12:29.930 ,6,1,0.,24.0,0.,24.0,0.,24.0,0.,24.0
1979-03-09 01:12:53.930 ,7,1,0.,24.0,0.,24.0,0.,24.0,0.,24.0
1979-03-09 01:13:17.930 ,7,1,0.,24.0,0.,24.0,0.,24.0,0.,24.0
1979-03-09 01:13:41.930 ,6,1,0.,24.0,0.,24.0,0.,24.0,0.,24.0
1979-03-09 01:14:05.930 ,5,1,0.,24.0,0.,24.0,0.,24.0,0.,24.0
1979-03-09 01:14:29.930 ,4,1,0.,24.0,0.,24.0,0.,24.0,0.,24.0
1979-03-09 01:14:53.930 ,3,1,0.,24.0,0.,24.0,0.,24.0,0.,24.0
1979-03-09 01:15:17.930 ,2,1,0.,24.0,0.,24.0,0.,24.0,0.,24.0
1979-03-09 01:15:41.930 ,1,1,0.,24.0,0.,24.0,0.,24.0,0.,24.0
1979-03-09 01:16:05.930 ,0,1,0.,24.0,0.,24.0,0.,24.0,0.,24.0
1979-03-09 01:16:29.930 ,0,1,0.,24.0,0.,24.0,0.,24.0,0.,24.0
1979-03-09 01:16:53.930 ,1,1,0.,24.0,0.,24.0,0.,24.0,0.,24.0
1979-03-09 01:17:17.930 ,2,1,0.,24.0,0.,24.0,0.,24.0,0.,24.0
1979-03-09 01:17:41.930 ,3,1,0.,24.0,0.,24.0,0.,24.0,0.,24.0
1979-03-09 01:18:05.930 ,4,1,0.,24.0,0.,24.0,0.,24.0,0.,24.0
1979-03-09 01:18:29.930 ,5,1,0.,24.0,0.,24.0,0.,24.0,0.,24.0
1979-03-09 01:18:53.930 ,6,1,0.,24.0,0.,24.0,0.,24.0,0.,24.0
1979-03-09 01:19:17.930 ,7,1,0.,24.0,0.,24.0,0.,24.0,0.,24.0
1979-03-09 01:19:41.930 ,7,1,0.,24.0,0.,24.0,0.,24.0,0.,24.0
1979-03-09 01:20:05.930 ,6,1,0.,24.0,0.,24.0,0.,24.0,0.,24.0
1979-03-09 01:20:29.930 ,5,1,0.,24.0,0.,24.0,0.,24.0,0.,24.0
1979-03-09 01:20:53.930 ,4,1,0.,24.0,0.,24.0,0.,24.0,0.,24.0
1979-03-09 01:21:17.930 ,3,1,0.,24.0,0.,24.0,0.,24.0,0.,24.0
1979-03-09 01:21:41.930 ,2,1,0.,24.0,0.,24.0,0.,24.0,0.,24.0
1979-03-09 01:22:05.930 ,1,1,0.,24.0,0.,24.0,0.,24.0,0.,24.0
1979-03-09 01:22:29.930 ,0,1,0.,24.0,0.,24.0,0.,24.0,0.,24.0
1979-03-09 01:22:53.930 ,0,1,0.,24.0,0.,24.0,0.,24.0,0.,24.0
1979-03-09 01:23:17.930 ,1,1,0.,24.0,0.,24.0,0.,24.0,0.,24.0
1979-03-09 01:23:41.930 ,2,1,0.,24.0,0.,24.0,0.,24.0,0.,24.0
1979-03-09 01:24:05.930 ,3,1,0.,24.0,0.,24.0,0.,24.0,0.,24.0
1979-03-09 01:24:29.930 ,4,1,0.,24.0,0.,24.0,0.,24.0,0.,24.0
1979-03-09 01:24:53.930 ,5,1,0.,24.0,0.,24.0,0.,24.0,0.,24.0
1979-03-09 01:25:17.930 ,6,1,0.,24.0,0.,24.0,0.,24.0,0.,24.0
1979-03-09 01:25:41.930 ,7,1,0.,24.0,0.,24.0,0.,24.0,0.,24.0
1979-03-09 01:26:05.930 ,7,1,0.,24.0,0.,24.0,0.,24.0,0.,24.0
1979-03-09 01:26:29.930 ,6,1,0.,24.0,0.,24.0,0.,24.0,0.,24.0
1979-03-09 01:26:53.930 ,5,1,0.,24.0,0.,24.0,0.,24.0,0.,24.0
1979-03-09 01:27:17.930 ,4,1,0.,24.0,0.,24.0,0.,24.0,0.,24.0
1979-03-09 01:27:41.930 ,3,1,0.,24.0,0.,24.0,0.,24.0,0.,24.0
1979-03-09 01:28:05.930 ,2,1,0.,24.0,0.,24.0,0.,24.0,0.,24.0
1979-03-09 01:28:29.930 ,1,1,0.,24.0,0.,24.0,0.,24.0,0.,24.0
1979-03-09 01:28:53.930 ,0,1,0.,24.0,0.,24.0,0.,24.0,0.,24.0
1979-03-09 01:29:17.930 ,0,1,0.,24.0,0.,24.0,0.,24.0,0.,24.0
1979-03-09 01:29:41.930 ,1,1,0.,24.0,0.,24.0,0.,24.0,0.,24.0
1979-03-09 01:30:05.930 ,2,1,0.,24.0,0.,24.0,0.,24.0,0.,24.0
1979-03-09 01:30:29.930 ,3,1,0.,24.0,0.,24.0,0.,24.0,0.,24.0
1979-03-09 01:30:53.930 ,4,1,0.,24.0,0.,24.0,0.,24.0,0.,24.0
1979-03-09 01:31:17.930 ,5,1,0.,24.0,0.,24.0,0.,24.0,0.,24.0
1979-03-09 01:31:41.930 ,6,1,0.,24.0,0.,24.0,0.,24.0,0.,24.0
1979-03-09 01:32:05.930 ,7,1,0.,24.0,0.,24.0,0.,24.0,0.,24.0
1979-03-09 01:32:29.930 ,7,1,0.,24.0,0.,24.0,0.,24.0,0.,24.0
1979-03-09 01:32:53.930 ,6,1,0.,24.0,0.,24.0,0.,24.0,0.,24.0
1979-03-09 01:33:17.930 ,5,1,0.,24.0,0.,24.0,0.,24.0,0.,24.0
1979-03-09 01:33:41.930 ,4,1,0.,24.0,0.,24.0,0.,24.0,0.,24.0
1979-03-09 01:34:05.930 ,3,1,0.,24.0,0.,24.0,0.,24.0,0.,24.0
1979-03-09 01:34:29.930 ,2,1,0.,24.0,0.,24.0,0.,24.0,0.,24.0
1979-03-09 01:34:53.930 ,1,1,0.,24.0,0.,24.0,0.,24.0,0.,24.0
1979-03-09 01:35:17.930 ,0,1,0.,24.0,0.,24.0,0.,24.0,0.,24.0
1979-03-09 01:35:41.930 ,0,1,0.,24.0,0.,24.0,0.,24.0,0.,24.0
1979-03-09 01:36:05.930 ,1,1,0.,24.0,0.,24.0,0.,24.0,0.,24.0
1979-03-09 01:36:29.930 ,2,1,0.,24.0,0.,24.0,0.,24.0,0.,24.0
1979-03-09 01:36:53.930 ,3,1,0.,24.0,0.,24.0,0.,24.0,0.,24.0
1979-03-09 01:37:17.930 ,4,1,0.,24.0,0.,24.0,0.,24.0,0.,24.0
1979-03-09 01:37:41.930 ,5,1,0.,24.0,0.,24.0,0.,24.0,0.,24.0
1979-03-09 01:38:05.930 ,6,1,0.,24.0,0.,24.0,0.,24.0,0.,24.0
1979-03-09 01:38:29.930 ,7,1,0.,24.0,0.,24.0,0.,24.0,0.,24.0
1979-03-09 01:38:53.930 ,7,1,0.,24.0,0.,24.0,0.,24.0,0.,24.0
1979-03-09 01:39:17.930 ,6,1,0.,24.0,0.,24.0,0.,24.0,0.,24.0
1979-03-09 01:39:41.930 ,5,1,0.,24.0,0.,24.0,0.,24.0,0.,24.0
1979-03-09 01:40:05.930 ,4,1,0.,24.0,0.,24.0,0.,24.0,0.,24.0
1979-03-09 01:40:29.930 ,3,1,0.,24.0,0.,24.0,0.,24.0,0.,24.0
1979-03-09 01:40:53.930 ,2,1,0.,24.0,0.,24.0,0.,24.0,0.,24.0
1979-03-09 01:41:17.930 ,1,1,0.,24.0,0.,24.0,0.,24.0,0.,24.0
1979-03-09 01:41:41.930 ,0,1,0.,24.0,0.,24.0,0.,24.0,0.,24.0
1979-03-09 01:42:05.930 ,0,1,0.,24.0,0.,24.0,0.,24.0,0.,24.0
1979-03-09 01:42:29.930 ,1,1,0.,24.0,0.,24.0,0.,24.0,0.,24.0
1979-03-09 01:42:53.930 ,2,1,0.,24.0,0.,24.0,0.,24.0,0.,24.0
1979-03-09 01:43:17.930 ,3,1,0.,24.0,0.,24.0,0.,24.0,0.,24.0
1979-03-09 01:43:41.930 ,4,1,0.,24.0,0.,24.0,0.,24.0,0.,24.0
1979-03-09 01:44:05.930 ,5,1,0.,24.0,0.,24.0,0.,24.0,0.,24.0
1979-03-09 01:44:29.930 ,6,1,0.,24.0,0.,24.0,0.,24.0,0.,24.0
1979-03-09 01:44:53.930 ,7,1,0.,24.0,0.,24.0,0.,24.0,0.,24.0
1979-03-09 01:45:17.930 ,7,1,0.,24.0,0.,24.0,0.,24.0,0.,24.0
1979-03-09 01:45:41.930 ,6,1,0.,24.0,0.,24.0,0.,24.0,0.,24.0
1979-03-09 01:46:05.930 ,5,1,0.,24.0,0.,24.0,0.,24.0,0.,24.0
1979-03-09 01:46:29.930 ,4,1,0.,24.0,0.,24.0,0.,24.0,0.,24.0
1979-03-09 01:46:53.930 ,3,1,0.,24.0,0.,24.0,0.,24.0,0.,24.0
1979-03-09 01:47:17.930 ,2,1,0.,24.0,0.,24.0,0.,24.0,0.,24.0
1979-03-09 01:47:41.930 ,1,1,0.,24.0,0.,24.0,0.,24.0,0.,24.0
1979-03-09 01:48:05.930 ,0,1,0.,24.0,0.,24.0,0.,24.0,0.,24.0
1979-03-09 01:48:29.930 ,0,1,0.,24.0,0.,24.0,0.,24.0,0.,24.0
1979-03-09 01:48:53.930 ,1,1,0.,24.0,0.,24.0,0.,24.0,0.,24.0
1979-03-09 01:49:17.930 ,2,1,0.,24.0,0.,24.0,0.,24.0,0.,24.0
1979-03-09 01:49:41.930 ,3,1,0.,24.0,0.,24.0,0.,24.0,0.,24.0
1979-03-09 01:50:05.930 ,4,1,0.,24.0,0.,24.0,0.,24.0,0.,24.0
1979-03-09 01:50:29.930 ,5,1,0.,24.0,0.,24.0,0.,24.0,0.,24.0
1979-03-09 01:50:53.930 ,6,1,0.,24.0,0.,24.0,0.,24.0,0.,24.0
1979-03-09 01:51:17.930 ,7,1,0.,24.0,0.,24.0,0.,24.0,0.,24.0
1979-03-09 01:51:41.930 ,7,1,0.,24.0,0.,24.0,0.,24.0,0.,24.0
1979-03-09 01:52:05.930 ,6,1,0.,24.0,0.,24.0,0.,24.0,0.,24.0
1979-03-09 01:52:29.930 ,5,1,0.,24.0,0.,24.0,0.,24.0,0.,24.0
1979-03-09 01:52:53.930 ,4,1,0.,24.0,0.,24.0,0.,24.0,0.,24.0
1979-03-09 01:53:17.930 ,3,1,0.,24.0,0.,24.0,0.,24.0,0.,24.0
1979-03-09 01:53:41.930 ,2,1,0.,24.0,0.,24.0,0.,24.0,0.,24.0
1979-03-09 01:54:05.930 ,1,1,0.,24.0,0.,24.0,0.,24.0,0.,24.0
1979-03-09 01:54:29.930 ,0,1,0.,24.0,0.,24.0,0.,24.0,0.,24.0
1979-03-09 01:54:53.930 ,0,1,0.,24.0,0.,24.0,0.,24.0,0.,24.0
1979-03-09 01:55:17.930 ,1,1,0.,24.0,0.,24.0,0.,24.0,0.,24.0
1979-03-09 01:55:41.930 ,2,1,0.,24.0,0.,24.0,0.,24.0,0.,24.0
1979-03-09 01:56:05.930 ,3,1,0.,24.0,0.,24.0,0.,24.0,0.,24.0
1979-03-09 01:56:29.930 ,4,1,0.,24.0,0.,24.0,0.,24.0,0.,24.0
1979-03-09 01:56:53.930 ,5,1,0.,24.0,0.,24.0,0.,24.0,0.,24.0
1979-03-09 01:57:17.930 ,6,1,0.,24.0,0.,24.0,0.,24.0,0.,24.0
1979-03-09 01:57:41.930 ,7,1,0.,24.0,0.,24.0,0.,24.0,0.,24.0
1979-03-09 01:58:05.930 ,7,1,0.,24.0,0.,24.0,0.,24.0,0.,24.0
1979-03-09 01:58:29.930 ,6,1,0.,24.0,0.,24.0,0.,24.0,0.,24.0
1979-03-09 01:58:53.930 ,5,1,0.,24.0,0.,24.0,0.,24.0,0.,24.0
1979-03-09 01:59:17.930 ,4,1,0.,24.0,0.,24.0,0.,24.0,0.,24.0
1979-03-09 01:59:41.930 ,3,1,0.,24.0,0.,24.0,0.,24.0,0.,24.0
1979-03-09 02:00:05.930 ,2,1,0.,24.0,0.,24.0,0.,24.0,0.,24.0
1979-03-09 02:00:29.930 ,1,1,0.,24.0,0.,24.0,0.,24.0,0.,24.0
1979-03-09 02:00:53.930 ,0,1,0.,24.0,0.,24.0,0.,24.0,0.,24.0
1979-03-09 02:01:17.930 ,0,1,0.,24.0,0.,24.0,0.,24.0,0.,24.0
1979-03-09 02:01:41.930 ,1,1,0.,24.0,0.,24.0,0.,24.0,0.,24.0
1979-03-09 02:02:05.930 ,2,1,0.,24.0,0.,24.0,0.,24.0,0.,24.0
1979-03-09 02:02:29.930 ,3,1,0.,24.0,0.,24.0,0.,24.0,0.,24.0
1979-03-09 02:02:53.930 ,4,1,0.,24.0,0.,24.0,0.,24.0,0.,24.0
1979-03-09 02:03:17.930 ,5,1,0.,24.0,0.,24.0,0.,24.0,0.,24.0
1979-03-09 02:03:41.930 ,6,1,0.,24.0,0.,24.0,0.,24.0,0.,24.0
1979-03-09 02:04:05.930 ,7,1,0.,24.0,0.,24.0,0.,24.0,0.,24.0
1979-03-09 02:04:29.930 ,7,1,0.,24.0,0.,24.0,0.,24.0,0.,24.0
1979-03-09 02:04:53.930 ,6,1,0.,24.0,0.,24.0,0.,24.0,0.,24.0
1979-03-09 02:05:17.930 ,5,1,0.,24.0,0.,24.0,0.,24.0,0.,24.0
1979-03-09 02:05:41.930 ,4,1,0.,24.0,0.,24.0,0.,24.0,0.,24.0
1979-03-09 02:06:05.930 ,3,1,0.,24.0,0.,24.0,0.,24.0,0.,24.0
1979-03-09 02:06:29.930 ,2,1,0.,24.0,0.,24.0,0.,24.0,0.,24.0
1979-03-09 02:06:53.930 ,1,1,0.,24.0,0.,24.0,0.,24.0,0.,24.0
1979-03-09 02:07:17.930 ,0,1,0.,24.0,0.,24.0,0.,24.0,0.,24.0
1979-03-09 02:07:41.930 ,0,1,0.,24.0,0.,24.0,0.,24.0,0.,24.0
1979-03-09 02:08:05.930 ,1,1,0.,24.0,0.,24.0,0.,24.0,0.,24.0
1979-03-09 02:08:29.930 ,2,1,0.,24.0,0.,24.0,0.,24.0,0.,24.0
1979-03-09 02:08:53.930 ,3,1,0.,24.0,0.,24.0,0.,24.0,0.,24.0
1979-03-09 02:09:17.930 ,4,1,0.,24.0,0.,24.0,0.,24.0,0.,24.0
1979-03-09 02:09:41.930 ,5,1,0.,24.0,0.,24.0,0.,24.0,0.,24.0
1979-03-09 02:10:05.930 ,6,1,0.,24.0,0.,24.0,0.,24.0,0.,24.0
1979-03-09 02:10:29.930 ,7,1,0.,24.0,0.,24.0,0.,24.0,0.,24.0
1979-03-09 02:10:53.930 ,7,1,0.,24.0,0.,24.0,0.,24.0,0.,24.0
1979-03-09 02:11:17.930 ,6,1,0.,24.0,0.,24.0,0.,24.0,0.,24.0
1979-03-09 02:11:41.930 ,5,1,0.,24.0,0.,24.0,0.,24.0,0.,24.0
1979-03-09 02:12:05.930 ,4,1,0.,24.0,0.,24.0,0.,24.0,0.,24.0
1979-03-09 02:12:29.930 ,3,1,0.,24.0,0.,24.0,0.,24.0,0.,24.0
1979-03-09 02:12:53.930 ,2,1,0.,24.0,0.,24.0,0.,24.0,0.,24.0
1979-03-09 02:13:17.930 ,1,1,0.,24.0,0.,24.0,0.,24.0,0.,24.0
1979-03-09 02:13:41.930 ,0,1,0.,24.0,0.,24.0,0.,24.0,0.,24.0
1979-03-09 02:14:05.930 ,0,1,0.,24.0,0.,24.0,0.,24.0,0.,24.0
1979-03-09 02:14:29.930 ,1,1,0.,24.0,0.,24.0,0.,24.0,0.,24.0
1979-03-09 02:14:53.930 ,2,1,0.,24.0,0.,24.0,0.,24.0,0.,24.0
1979-03-09 02:15:17.930 ,3,1,0.,24.0,0.,24.0,0.,24.0,0.,24.0
1979-03-09 02:15:41.930 ,4,1,0.,24.0,0.,24.0,0.,24.0,0.,24.0
1979-03-09 02:16:05.930 ,5,1,0.,24.0,0.,24.0,0.,24.0,0.,24.0
1979-03-09 02:16:29.930 ,6,1,0.,24.0,0.,24.0,0.,24.0,0.,24.0
1979-03-09 02:16:53.930 ,7,1,0.,24.0,0.,24.0,0.,24.0,0.,24.0
1979-03-09 02:17:17.930 ,7,1,0.,24.0,0.,24.0,0.,24.0,0.,24.0
1979-03-09 02:17:41.930 ,6,1,0.,24.0,0.,24.0,0.,24.0,0.,24.0
1979-03-09 02:18:05.930 ,5,1,0.,24.0,0.,24.0,0.,24.0,0.,24.0
1979-03-09 02:18:29.930 ,4,1,0.,24.0,0.,24.0,0.,24.0,0.,24.0
1979-03-09 02:18:53.930 ,3,1,0.,24.0,0.,24.0,0.,24.0,0.,24.0
1979-03-09 02:19:17.930 ,2,1,0.,24.0,0.,24.0,0.,24.0,0.,24.0
1979-03-09 02:19:41.930 ,1,1,0.,24.0,0.,24.0,0.,24.0,0.,24.0
1979-03-09 02:20:05.930 ,0,1,0.,24.0,0.,24.0,0.,24.0,0.,24.0
1979-03-09 02:20:29.930 ,0,1,0.,24.0,0.,24.0,0.,24.0,0.,24.0
1979-03-09 02:20:53.930 ,1,1,0.,24.0,0.,24.0,0.,24.0,0.,24.0
1979-03-09 02:21:17.930 ,2,1,0.,24.0,0.,24.0,0.,24.0,0.,24.0
1979-03-09 02:21:41.930 ,3,1,0.,24.0,0.,24.0,0.,24.0,0.,24.0
1979-03-09 02:22:05.930 ,4,1,0.,24.0,0.,24.0,0.,24.0,0.,24.0
1979-03-09 02:22:29.940 ,5,1,0.,24.0,0.,24.0,0.,24.0,0.,24.0
1979-03-09 02:22:53.940 ,6,1,0.,24.0,0.,24.0,0.,24.0,0.,24.0
1979-03-09 02:23:17.940 ,7,1,0.,24.0,0.,24.0,0.,24.0,0.,24.0
1979-03-09 02:23:41.940 ,7,1,0.,24.0,0.,24.0,0.,24.0,0.,24.0
1979-03-09 02:24:05.940 ,6,1,0.,24.0,0.,24.0,0.,24.0,0.,24.0
1979-03-09 02:24:29.940 ,5,1,0.,24.0,0.,24.0,0.,24.0,0.,24.0
1979-03-09 02:24:53.940 ,4,1,0.,24.0,0.,24.0,0.,24.0,0.,24.0
1979-03-09 02:25:17.940 ,3,1,0.,24.0,0.,24.0,0.,24.0,0.,24.0
1979-03-09 02:25:41.940 ,2,1,0.,24.0,0.,24.0,0.,24.0,0.,24.0
1979-03-09 02:26:05.940 ,1,1,0.,24.0,0.,24.0,0.,24.0,0.,24.0
1979-03-09 02:26:29.940 ,0,1,0.,24.0,0.,24.0,0.,24.0,0.,24.0
1979-03-09 02:26:53.940 ,0,1,0.,24.0,0.,24.0,0.,24.0,0.,24.0
1979-03-09 02:27:17.940 ,1,1,0.,24.0,0.,24.0,0.,24.0,0.,24.0
1979-03-09 02:27:41.940 ,2,1,0.,24.0,0.,24.0,0.,24.0,0.,24.0
1979-03-09 02:28:05.940 ,3,1,0.,24.0,0.,24.0,0.,24.0,0.,24.0
1979-03-09 02:28:29.940 ,4,1,0.,24.0,0.,24.0,0.,24.0,0.,24.0
1979-03-09 02:28:53.940 ,5,1,0.,24.0,0.,24.0,0.,24.0,0.,24.0
1979-03-09 02:29:17.940 ,6,1,0.,24.0,0.,24.0,0.,24.0,0.,24.0
1979-03-09 02:29:41.940 ,7,1,0.,24.0,0.,24.0,0.,24.0,0.,24.0
1979-03-09 02:30:05.940 ,7,1,0.,24.0,0.,24.0,0.,24.0,0.,24.0
1979-03-09 02:30:29.940 ,6,1,0.,24.0,0.,24.0,0.,24.0,0.,24.0
1979-03-09 02:30:53.940 ,5,1,0.,24.0,0.,24.0,0.,24.0,0.,24.0
1979-03-09 02:31:17.940 ,4,1,0.,24.0,0.,24.0,0.,24.0,0.,24.0
1979-03-09 02:31:41.940 ,3,1,0.,24.0,0.,24.0,0.,24.0,0.,24.0
1979-03-09 02:32:05.940 ,2,1,0.,24.0,0.,24.0,0.,24.0,0.,24.0
1979-03-09 02:32:29.940 ,1,1,0.,24.0,0.,24.0,0.,24.0,0.,24.0
1979-03-09 02:32:53.940 ,0,1,0.,24.0,0.,24.0,0.,24.0,0.,24.0
1979-03-09 02:33:17.940 ,0,1,0.,24.0,0.,24.0,0.,24.0,0.,24.0
1979-03-09 02:33:41.940 ,1,1,0.,24.0,0.,24.0,0.,24.0,0.,24.0
1979-03-09 02:34:05.940 ,2,1,0.,24.0,0.,24.0,0.,24.0,0.,24.0
1979-03-09 02:34:29.940 ,3,1,0.,24.0,0.,24.0,0.,24.0,0.,24.0